sat.trackr.live / text

‹ back to catalog

STARLINK-32557

NORAD 62127 · 2024-222P

PAYLOAD ACTIVE UNKNOWN

§ Identity

Operator
Country
US
Launch date
2024-11-27
Launch site
AFETR
Launch vehicle
Mass (kg)
RCS (m²)

Purposes: comms

External: N2YO · Heavens-Above · Gunter

§ Orbital elements

Epoch: 2026-09-20T23:00:11.090880Z

Period
94.27 min
Inclination
43.0021°
Eccentricity
0.0001389
Mean motion
15.27586940 rev/d
Perigee alt
482.1 km
Apogee alt
484.0 km
Semi-major
6,861.2 km
B*
8.4820e-4
RAAN
102.8039°
Arg perigee
290.2553°
Mean anomaly
69.8149°
Rev number
10,278

§ Raw data

STARLINK-325571 62127U 24222P   26263.95846170  .00023157  00000+0  84820-3 0  99912 62127  43.0021 102.8039 0001389 290.2553  69.8149 15.27586940102782

JSON: /api/v1/satellites/62127 · /tle

For live sub-satellite position, see the globe view (requires WebGL).

§ Visibility from observer

Set your observer location to see the next 7 days of passes ≥ 10°. The values pass through the URL so the page stays shareable.

No JS? Fill the form by hand. The geolocation button needs JavaScript.